TimeCST,TemperatureF,Dew PointF,Humidity,Sea Level PressureIn,VisibilityMPH,Wind Direction,Wind SpeedMPH,Gust SpeedMPH,PrecipitationIn,Events,Conditions,WindDirDegrees,DateUTC
12:15 AM,40.5,34.3,79,30.34,10.0,North,13.8,20.7,N/A,,Overcast,350,2013-12-24 06:15:00
12:35 AM,40.1,34.0,79,30.34,10.0,North,12.7,-,N/A,,Overcast,350,2013-12-24 06:35:00
12:55 AM,39.6,33.4,79,30.35,10.0,NNW,11.5,19.6,0.01,,Overcast,330,2013-12-24 06:55:00
1:10 AM,39.0,33.3,80,30.35,10.0,NNW,10.4,17.3,N/A,,Mostly Cloudy,340,2013-12-24 07:10:00
1:35 AM,38.3,32.9,81,30.35,10.0,North,10.4,16.1,N/A,,Scattered Clouds,350,2013-12-24 07:35:00
1:55 AM,37.6,32.0,80,30.35,10.0,North,11.5,-,N/A,,Clear,350,2013-12-24 07:55:00
2:15 AM,37.0,32.0,82,30.35,10.0,NNW,11.5,-,N/A,,Clear,340,2013-12-24 08:15:00
2:35 AM,36.7,32.0,83,30.35,10.0,North,9.2,-,N/A,,Clear,350,2013-12-24 08:35:00
2:55 AM,36.1,32.0,85,30.36,10.0,North,12.7,-,N/A,,Clear,350,2013-12-24 08:55:00
3:15 AM,35.6,32.0,87,30.36,10.0,North,12.7,-,N/A,,Clear,350,2013-12-24 09:15:00
3:35 AM,35.1,31.8,88,30.36,10.0,North,11.5,17.3,0.01,,Clear,360,2013-12-24 09:35:00
3:55 AM,34.7,31.8,89,30.35,10.0,North,12.7,17.3,0.01,,Clear,360,2013-12-24 09:55:00
4:15 AM,34.0,31.6,91,30.36,10.0,North,11.5,16.1,N/A,,Clear,350,2013-12-24 10:15:00
4:35 AM,33.8,31.5,91,30.36,10.0,North,8.1,-,N/A,,Clear,360,2013-12-24 10:35:00
4:55 AM,33.1,31.1,92,30.36,10.0,North,9.2,-,N/A,,Clear,350,2013-12-24 10:55:00
5:15 AM,32.9,31.1,93,30.37,10.0,North,11.5,-,N/A,,Clear,360,2013-12-24 11:15:00
5:35 AM,32.9,30.9,92,30.38,10.0,North,10.4,-,N/A,,Clear,350,2013-12-24 11:35:00
5:55 AM,32.5,30.9,94,30.39,10.0,North,9.2,-,N/A,,Clear,350,2013-12-24 11:55:00
6:15 AM,32.2,30.7,94,30.40,10.0,North,8.1,-,N/A,,Clear,350,2013-12-24 12:15:00
6:35 AM,32.0,30.6,94,30.41,10.0,NNW,10.4,-,N/A,,Clear,340,2013-12-24 12:35:00
6:55 AM,32.0,30.2,93,30.42,10.0,North,11.5,-,0.01,,Clear,350,2013-12-24 12:55:00
7:15 AM,32.2,30.6,94,30.43,10.0,North,11.5,-,N/A,,Clear,350,2013-12-24 13:15:00
7:35 AM,32.9,30.6,91,30.43,10.0,North,9.2,-,N/A,,Clear,350,2013-12-24 13:35:00
7:55 AM,33.6,30.2,87,30.44,10.0,North,11.5,-,N/A,,Clear,350,2013-12-24 13:55:00
8:15 AM,35.2,30.4,82,30.44,10.0,North,11.5,-,N/A,,Clear,360,2013-12-24 14:15:00
8:35 AM,36.5,29.8,77,30.44,10.0,North,12.7,17.3,N/A,,Clear,350,2013-12-24 14:35:00
8:55 AM,37.9,29.7,72,30.45,10.0,North,11.5,-,N/A,,Clear,350,2013-12-24 14:55:00
9:15 AM,39.6,28.8,65,30.45,10.0,North,15.0,18.4,N/A,,Clear,350,2013-12-24 15:15:00
9:35 AM,41.7,29.7,62,30.45,10.0,North,11.5,16.1,N/A,,Clear,10,2013-12-24 15:35:00
9:55 AM,42.6,27.5,55,30.45,10.0,North,12.7,18.4,N/A,,Clear,360,2013-12-24 15:55:00
10:15 AM,44.2,26.4,50,30.44,10.0,North,12.7,17.3,N/A,,Clear,360,2013-12-24 16:15:00
10:35 AM,45.5,27.1,49,30.43,10.0,North,13.8,-,0.01,,Clear,350,2013-12-24 16:35:00
10:55 AM,46.4,24.8,43,30.42,10.0,North,15.0,21.9,0.01,,Clear,360,2013-12-24 16:55:00
11:15 AM,47.1,25.9,44,30.41,10.0,North,12.7,-,N/A,,Clear,360,2013-12-24 17:15:00
11:35 AM,48.7,26.2,42,30.41,10.0,North,16.1,-,N/A,,Clear,350,2013-12-24 17:35:00
11:55 AM,49.6,27.7,43,30.39,10.0,North,13.8,17.3,N/A,,Clear,10,2013-12-24 17:55:00
12:15 PM,50.0,28.6,44,30.38,10.0,North,15.0,19.6,N/A,,Clear,360,2013-12-24 18:15:00
12:35 PM,49.8,28.9,45,30.37,10.0,North,12.7,-,N/A,,Clear,350,2013-12-24 18:35:00
12:55 PM,50.5,27.9,42,30.36,10.0,North,13.8,20.7,N/A,,Clear,350,2013-12-24 18:55:00
1:15 PM,51.4,27.7,40,30.35,10.0,North,18.4,24.2,0.01,,Clear,350,2013-12-24 19:15:00
1:35 PM,50.9,26.4,39,30.35,10.0,NNW,17.3,23.0,0.01,,Clear,340,2013-12-24 19:35:00
1:55 PM,51.3,27.0,39,30.35,10.0,North,12.7,18.4,0.01,,Clear,10,2013-12-24 19:55:00
2:15 PM,51.4,28.2,41,30.35,10.0,North,12.7,16.1,N/A,,Clear,360,2013-12-24 20:15:00
2:35 PM,51.6,28.6,41,30.35,10.0,North,11.5,17.3,N/A,,Clear,360,2013-12-24 20:35:00
2:55 PM,51.1,27.3,40,30.35,10.0,North,12.7,-,N/A,,Clear,10,2013-12-24 20:55:00
3:15 PM,50.9,26.8,39,30.34,10.0,North,12.7,18.4,N/A,,Clear,360,2013-12-24 21:15:00
3:35 PM,50.4,26.1,39,30.34,10.0,North,16.1,21.9,N/A,,Clear,10,2013-12-24 21:35:00
3:55 PM,49.5,25.9,40,30.35,10.0,North,11.5,-,N/A,,Clear,360,2013-12-24 21:55:00
4:15 PM,48.6,26.6,42,30.35,10.0,North,12.7,-,N/A,,Clear,360,2013-12-24 22:15:00
4:35 PM,47.3,26.8,45,30.35,10.0,North,9.2,-,N/A,,Clear,360,2013-12-24 22:35:00
4:55 PM,45.7,27.1,48,30.35,10.0,North,8.1,-,N/A,,Clear,360,2013-12-24 22:55:00
5:15 PM,44.2,27.7,52,30.35,10.0,North,6.9,-,N/A,,Clear,360,2013-12-24 23:15:00
5:35 PM,42.8,28.4,57,30.35,10.0,North,6.9,-,0.01,,Clear,360,2013-12-24 23:35:00
5:55 PM,42.3,28.0,57,30.35,10.0,North,6.9,-,0.01,,Clear,360,2013-12-24 23:55:00
6:15 PM,41.2,28.0,60,30.36,10.0,North,5.8,-,N/A,,Clear,10,2013-12-25 00:15:00
6:35 PM,41.0,26.8,57,30.36,10.0,North,8.1,-,N/A,,Clear,360,2013-12-25 00:35:00
6:55 PM,40.1,26.2,58,30.36,10.0,North,6.9,-,N/A,,Clear,360,2013-12-25 00:55:00
7:15 PM,39.6,25.5,57,30.36,10.0,North,6.9,-,N/A,,Clear,360,2013-12-25 01:15:00
7:35 PM,39.4,25.2,57,30.37,10.0,North,4.6,-,N/A,,Clear,10,2013-12-25 01:35:00
7:55 PM,38.5,25.0,58,30.38,10.0,North,4.6,-,N/A,,Clear,360,2013-12-25 01:55:00
8:15 PM,37.9,25.5,61,30.39,10.0,NNW,4.6,-,N/A,,Clear,340,2013-12-25 02:15:00
8:35 PM,35.8,26.2,68,30.39,10.0,North,4.6,-,N/A,,Clear,360,2013-12-25 02:35:00
8:55 PM,35.4,26.2,69,30.38,10.0,North,6.9,-,N/A,,Clear,360,2013-12-25 02:55:00
9:15 PM,35.6,25.7,67,30.38,10.0,North,5.8,-,N/A,,Clear,350,2013-12-25 03:15:00
9:35 PM,35.1,26.1,70,30.38,10.0,North,5.8,-,N/A,,Clear,360,2013-12-25 03:35:00
9:55 PM,34.5,26.4,72,30.38,10.0,North,5.8,-,N/A,,Clear,350,2013-12-25 03:55:00
10:15 PM,33.8,26.6,75,30.38,10.0,NNW,4.6,-,N/A,,Clear,340,2013-12-25 04:15:00
10:35 PM,33.3,26.6,77,30.38,10.0,North,4.6,-,N/A,,Clear,350,2013-12-25 04:35:00
10:55 PM,32.4,27.0,80,30.38,10.0,NNW,4.6,-,N/A,,Clear,340,2013-12-25 04:55:00
11:15 PM,32.2,27.3,82,30.38,10.0,North,6.9,-,N/A,,Clear,350,2013-12-25 05:15:00
11:35 PM,31.8,26.8,82,30.38,10.0,North,5.8,-,N/A,,Clear,350,2013-12-25 05:35:00
11:55 PM,32.0,27.3,83,30.37,10.0,North,5.8,-,N/A,,Clear,350,2013-12-25 05:55:00